Weather History for Biggs Army Air Field / Ft. Bl, TX

Change the Weather History Date:

Friday, January 10, 2014

  Actual Average Record
Temperature  
Mean Temperature 54 °F -  
Max Temperature 62 °F - - ()
Min Temperature 46 °F - - ()
Degree Days  
Heating Degree Days 11    
Growing Degree Days 4 (Base 50)    
Moisture  
Dew Point 18 °F    
Average Humidity 25    
Maximum Humidity 51    
Minimum Humidity 14    
Precipitation  
Precipitation 0.00 in - - ()
Sea Level Pressure  
Sea Level Pressure 29.93 in    
Wind  
Wind Speed 11 mph (West)    
Max Wind Speed 18 mph    
Max Gust Speed 26 mph    
Visibility 8 miles    
Events      
T = Trace of Precipitation, MM = Missing Value Source: NWS Daily Summary

Daily Weather History Graph

Daily Weather History Graph

Search for Another Location

Airport:

Trip Planner

Search our weather history database for the weather conditions in past years. The results will help you decide how hot, cold, wet, or windy it might be!

Date:

Astronomy

Jan. 10, 2014 Rise Set
Actual Time 7:06 AM MST 5:19 PM MST
Civil Twilight 6:39 AM MST 5:46 PM MST
Nautical Twilight 6:09 AM MST 6:16 PM MST
Astronomical Twilight 5:40 AM MST 6:46 PM MST
Moon 1:21 PM MST (1/10) 2:22 AM MST (1/10)
Length of Visible Light 11h 06m
Length of Day
10h 13m
Waxing Gibbous, 75% of the Moon is Illuminated
Jan 10
Waxing Gibbous
Jan 15
Full
Jan 23
Last Quarter
Jan 30
New
Feb 6
First Quarter

Hourly Weather History & Observations

Time (MST) Temp. Windchill Dew Point Humidity Pressure Visibility Wind Dir Wind Speed Gust Speed Precip Events Conditions
12:56 AM 54.0 °F - 25.3 °F 33% 29.89 in 7.0 mi South 10.4 mph - N/A   Mostly Cloudy
1:56 AM 52.3 °F - 30.4 °F 43% 29.89 in 7.0 mi South 8.1 mph - N/A   Clear
2:56 AM 51.1 °F - 32.2 °F 48% 29.88 in 7.0 mi SE 10.4 mph - N/A   Clear
3:56 AM 51.8 °F - 31.3 °F 46% 29.89 in 7.0 mi WNW 10.4 mph - N/A   Clear
4:56 AM 46.4 °F 42.9 °F 28.9 °F 51% 29.92 in 7.0 mi Variable 6.9 mph - N/A   Clear
5:56 AM 48.6 °F - 26.4 °F 42% 29.93 in 7.0 mi WSW 10.4 mph - N/A   Clear
6:56 AM 48.9 °F - 22.6 °F 36% 29.94 in 7.0 mi SSW 5.8 mph - N/A   Clear
7:56 AM 52.3 °F - 17.4 °F 25% 29.94 in 7.0 mi West 18.4 mph 26.5 mph N/A   Clear
8:56 AM 55.0 °F - 14.4 °F 20% 29.96 in 7.0 mi West 15.0 mph 25.3 mph N/A   Clear
9:56 AM 55.6 °F - 14.0 °F 19% 29.98 in 7.0 mi West 10.4 mph 21.9 mph N/A   Clear
10:56 AM 57.0 °F - 13.6 °F 18% 29.98 in 7.0 mi West 12.7 mph 21.9 mph N/A   Clear
11:56 AM 60.3 °F - 12.7 °F 16% 29.92 in 7.0 mi SSW 11.5 mph - N/A   Clear
12:56 PM 60.8 °F - 12.4 °F 15% 29.88 in 7.0 mi West 13.8 mph - N/A   Clear
1:56 PM 62.2 °F - 12.7 °F 14% 29.86 in 7.0 mi West 15.0 mph 26.5 mph N/A   Clear
2:56 PM 62.8 °F - 12.6 °F 14% 29.86 in 7.0 mi WNW 15.0 mph 23.0 mph N/A   Clear
3:56 PM 62.8 °F - 12.6 °F 14% 29.87 in 7.0 mi West 15.0 mph - N/A   Clear
4:56 PM 61.2 °F - 12.4 °F 15% 29.89 in 7.0 mi West 8.1 mph - N/A   Clear
5:56 PM 57.9 °F - 12.0 °F 16% 29.91 in 7.0 mi West 11.5 mph - N/A   Partly Cloudy
6:56 PM 57.9 °F - 13.3 °F 17% 29.94 in 7.0 mi West 9.2 mph - N/A   Partly Cloudy
7:56 PM 57.2 °F - 14.0 °F 18% 29.95 in 7.0 mi West 11.5 mph - N/A   Clear
8:56 PM 56.7 °F - 15.1 °F 20% 29.96 in 12.0 mi WNW 11.5 mph 24.2 mph N/A   Clear
9:56 PM 56.1 °F - 16.2 °F 21% 29.98 in 12.0 mi West 16.1 mph 25.3 mph N/A   Clear
10:56 PM 54.5 °F - 16.2 °F 22% 30.00 in 12.0 mi WNW 4.6 mph 13.8 mph N/A   Clear
11:56 PM 54.7 °F - 16.2 °F 22% 30.01 in 12.0 mi WNW 8.1 mph 16.1 mph N/A   Clear